Stations météo

réclame
Mon MeteoGroup
Lichteiland Goeree, Pays-Bas (6320): Température de l'air & dewpoint: 25.09.2020 17:00:00 - 01.10.2020 17:00:00 (CEST)Lichteiland Goeree, Pays-Bas (6320): water temperature: 25.09.2020 17:00:00 - 01.10.2020 17:00:00 (CEST)Lichteiland Goeree, Pays-Bas (6320): Vitesse du vent & gusts: 25.09.2020 17:00:00 - 01.10.2020 17:00:00 (CEST)Lichteiland Goeree, Pays-Bas (6320): Direction du vent: 25.09.2020 17:00:00 - 01.10.2020 17:00:00 (CEST)Lichteiland Goeree, Pays-Bas (6320): reduced air pressure: 25.09.2020 17:00:00 - 01.10.2020 17:00:00 (CEST)Lichteiland Goeree, Pays-Bas (6320): visibility: 25.09.2020 17:00:00 - 01.10.2020 17:00:00 (CEST)
Date & Time tt [°C] td [°C] tw [°C] ff [km/h] ff [knt] fx [km/h] fx [knt] dd ppp [hPa] vv [km]
01.10.2020 17:00:00 - - - - - - - - - -
01.10.2020 16:00:00 13,6 12,1 17,0 29 16 32 18 WSW 996,4 6
01.10.2020 15:00:00 13,5 12,3 17,0 26 14 29 16 W 995,8 7
01.10.2020 14:00:00 13,6 12,3 17,0 37 20 47 25 S 995,2 9
01.10.2020 13:00:00 14,4 13,8 17,4 41 22 47 25 S 996,1 6
01.10.2020 12:00:00 14,6 13,8 17,0 42 23 47 25 S 996,9 10
01.10.2020 11:00:00 14,9 13,8 17,0 46 25 50 27 S 997,3 10
01.10.2020 10:00:00 15,2 14,1 17,0 44 24 50 27 SSE 997,9 10
01.10.2020 09:00:00 15,3 13,8 17,0 48 26 50 27 S 998,6 10
01.10.2020 08:00:00 15,4 13,9 17,0 46 25 50 27 S 999,3 10
01.10.2020 07:00:00 15,7 13,8 17,0 41 22 47 25 SSE 1000,1 10
01.10.2020 06:00:00 15,8 14,1 17,0 39 21 43 23 S 1001,0 10
01.10.2020 05:00:00 15,9 14,4 17,0 39 21 40 21 S 1002,1 10
01.10.2020 04:00:00 16,4 14,2 17,0 34 18 36 19 S 1002,8 10
01.10.2020 03:00:00 16,4 14,6 17,0 39 21 40 21 S 1003,5 10
01.10.2020 02:00:00 16,5 14,5 17,4 36 19 43 23 S 1004,4 15
01.10.2020 01:00:00 16,6 14,5 17,0 39 21 40 21 S 1005,2 10
01.10.2020 00:00:00 16,6 14,6 17,0 39 21 40 21 S 1006,0 10
30.09.2020 23:00:00 16,8 14,4 17,0 35 19 36 19 S 1006,8 10
30.09.2020 22:00:00 17,0 14,6 17,0 29 16 36 19 SSE 1007,3 10
30.09.2020 21:00:00 16,2 14,0 17,0 18 10 36 19 S 1007,8 10
30.09.2020 20:00:00 15,3 13,3 17,4 31 17 47 25 SW 1008,7 6
30.09.2020 19:00:00 17,6 15,0 17,0 26 14 36 19 S 1008,5 10
30.09.2020 18:00:00 17,5 15,2 18,0 28 15 32 18 S 1008,9 10
30.09.2020 17:00:00 17,4 14,5 18,0 28 15 29 16 S 1009,4 10
30.09.2020 16:00:00 17,0 14,9 17,0 29 16 32 18 SSW 1009,9 10
30.09.2020 15:00:00 16,8 14,7 18,0 29 16 32 18 SSW 1010,3 10
30.09.2020 14:00:00 16,3 15,0 17,0 28 15 29 16 S 1011,0 7
30.09.2020 13:00:00 15,9 14,7 17,0 28 15 29 16 S 1011,5 10
30.09.2020 12:00:00 15,6 14,2 17,0 24 13 32 18 S 1012,3 10
30.09.2020 11:00:00 15,4 14,1 17,0 29 16 32 18 S 1012,6 23
30.09.2020 10:00:00 15,2 14,0 17,0 34 18 32 18 S 1012,9 10
30.09.2020 09:00:00 15,3 13,7 17,0 29 16 36 19 SSW 1013,1 16
30.09.2020 08:00:00 15,0 13,9 17,0 24 13 29 16 SSW 1013,1 10
30.09.2020 07:00:00 15,3 13,4 17,0 28 15 32 18 SSW 1013,3 10
30.09.2020 06:00:00 15,7 13,3 18,0 29 16 32 18 SW 1013,7 10
30.09.2020 05:00:00 15,6 13,8 18,0 35 19 36 19 SW 1013,9 10
30.09.2020 04:00:00 15,6 14,0 18,0 26 14 32 18 SSW 1014,3 10
30.09.2020 03:00:00 15,9 14,1 18,0 28 15 29 16 SW 1014,6 10
30.09.2020 02:00:00 16,1 13,2 17,0 41 22 29 16 S 1014,8 10
30.09.2020 01:00:00 16,1 13,0 18,0 28 15 29 16 WSW 1015,1 10
30.09.2020 00:00:00 16,2 13,0 17,0 24 13 25 14 WSW 1015,2 10
29.09.2020 23:00:00 16,3 13,5 17,0 24 13 29 16 WSW 1015,6 10
29.09.2020 22:00:00 16,7 13,9 18,0 29 16 32 18 SW 1015,4 10
29.09.2020 21:00:00 16,9 14,5 17,0 25 14 32 18 SW 1015,4 23
29.09.2020 20:00:00 17,1 14,9 18,0 26 14 32 18 SW 1015,4 10
29.09.2020 19:00:00 16,4 14,3 18,0 15 8 18 10 S 1015,0 10
29.09.2020 18:00:00 16,0 13,3 18,0 13 7 14 8 S 1014,9 10
29.09.2020 17:00:00 15,7 11,8 17,0 15 8 18 10 SSW 1015,0 10
29.09.2020 16:00:00 15,7 13,1 18,0 18 10 22 12 SSW 1015,2 10
29.09.2020 15:00:00 16,3 11,9 18,0 11 6 14 8 SW 1015,6 23
29.09.2020 14:00:00 16,0 11,1 18,0 14 8 18 10 SW 1015,8 21
29.09.2020 13:00:00 15,7 11,0 18,0 4 2 11 6 - 1015,7 10
29.09.2020 12:00:00 15,6 10,9 18,0 9 5 14 8 WNW 1015,7 10
29.09.2020 11:00:00 15,5 10,2 17,0 8 4 11 6 NW 1015,7 10
29.09.2020 10:00:00 15,3 10,4 17,0 8 4 18 10 WNW 1015,2 10
29.09.2020 09:00:00 15,2 9,3 17,0 15 8 18 10 NW 1014,7 10
29.09.2020 08:00:00 14,9 8,5 17,0 13 7 18 10 NW 1014,2 10
29.09.2020 07:00:00 14,8 9,5 18,0 18 10 25 14 NW 1014,2 10
29.09.2020 06:00:00 14,9 8,5 18,0 18 10 25 14 NW 1013,9 26
29.09.2020 05:00:00 15,0 8,7 17,0 18 10 25 14 NW 1013,5 27
29.09.2020 04:00:00 15,0 10,0 18,0 24 13 29 16 NW 1013,3 10
29.09.2020 03:00:00 15,1 9,8 18,0 29 16 32 18 NW 1013,1 10
29.09.2020 02:00:00 15,2 11,5 17,5 21 11 29 16 NNW 1012,8 10
29.09.2020 01:00:00 14,1 12,4 18,0 28 15 40 21 NW 1012,9 6
29.09.2020 00:00:00 14,3 12,5 17,5 41 22 40 21 NW 1012,7 8
28.09.2020 23:00:00 14,7 13,5 18,0 39 21 43 23 NNW 1012,5 10
28.09.2020 22:00:00 14,1 14,1 18,0 41 22 47 25 NW 1012,0 5
28.09.2020 21:00:00 14,4 14,4 18,0 44 24 47 25 NW 1011,5 2,7
28.09.2020 20:00:00 14,9 14,7 18,0 44 24 43 23 NW 1010,9 2,6
28.09.2020 19:00:00 15,4 15,2 18,0 41 22 43 23 NNW 1009,9 8
28.09.2020 18:00:00 15,2 15,2 18,0 44 24 47 25 NNW 1009,4 3,7
28.09.2020 17:00:00 15,0 15,0 18,0 46 25 47 25 NW 1009,0 1,9
28.09.2020 16:00:00 16,1 15,5 18,0 39 21 40 21 NNW 1008,8 10
28.09.2020 15:00:00 16,3 15,7 18,0 39 21 40 21 NNW 1008,7 7
28.09.2020 14:00:00 16,2 15,6 18,0 39 21 47 25 N 1008,6 10
28.09.2020 13:00:00 16,0 15,9 17,6 41 22 43 23 NNW 1008,3 3,6
28.09.2020 12:00:00 16,1 15,9 18,0 41 22 43 23 N 1008,0 2,5
28.09.2020 11:00:00 16,7 16,0 18,0 36 19 43 23 N 1007,7 10
28.09.2020 10:00:00 16,8 15,9 18,0 39 21 43 23 N 1007,5 9
28.09.2020 09:00:00 16,5 16,1 18,0 39 21 43 23 N 1007,3 4,1
28.09.2020 08:00:00 16,5 15,7 18,0 44 24 47 25 N 1007,1 7
28.09.2020 07:00:00 16,7 16,1 18,0 42 23 47 25 N 1007,2 6
28.09.2020 06:00:00 16,9 16,4 18,0 34 18 36 19 N 1007,1 3,3
28.09.2020 05:00:00 17,1 16,5 18,0 34 18 36 19 N 1007,2 8
28.09.2020 04:00:00 16,3 16,1 18,0 16 9 18 10 NW 1007,6 4,9
28.09.2020 03:00:00 15,7 15,2 18,0 11 6 14 8 NW 1007,9 7
28.09.2020 02:00:00 15,0 14,7 18,0 8 4 14 8 N 1008,2 6
28.09.2020 01:00:00 15,1 14,0 18,0 9 5 11 6 N 1008,3 10
28.09.2020 00:00:00 14,4 13,8 18,0 2 1 11 6 - 1008,2 10
27.09.2020 23:00:00 14,3 14,0 18,0 9 5 18 10 SE 1008,0 4,7
27.09.2020 22:00:00 14,2 13,9 18,0 11 6 14 8 SSE 1007,7 4,8
27.09.2020 21:00:00 14,3 13,8 18,0 9 5 18 10 SSE 1007,2 8
27.09.2020 20:00:00 14,4 14,2 18,0 16 9 18 10 ESE 1006,8 4,5
27.09.2020 19:00:00 15,6 15,1 18,0 14 8 22 12 ENE 1006,2 3,2
27.09.2020 18:00:00 16,3 14,2 18,0 24 13 29 16 NE 1005,8 10
27.09.2020 17:00:00 16,5 13,6 18,0 31 17 32 18 NNE 1005,5 10
27.09.2020 16:00:00 16,3 12,8 18,0 26 14 32 18 NE 1005,2 10
27.09.2020 15:00:00 16,3 12,9 18,0 35 19 43 23 NE 1004,6 10
27.09.2020 14:00:00 16,3 12,3 18,0 40 21 47 25 NE 1004,1 25
27.09.2020 13:00:00 16,2 12,5 18,0 39 21 50 27 NE 1003,7 10
27.09.2020 12:00:00 16,6 13,3 18,0 41 22 50 27 NE 1002,8 10
27.09.2020 11:00:00 17,3 15,7 18,0 57 31 65 35 N 1002,0 8
27.09.2020 10:00:00 16,9 16,3 17,6 61 33 76 41 N 1000,9 8
27.09.2020 09:00:00 16,6 16,6 18,0 70 38 83 45 N 1000,0 7
27.09.2020 08:00:00 15,5 15,5 18,0 72 39 83 45 N 999,5 5
27.09.2020 07:00:00 14,8 14,8 18,0 80 43 90 49 N 999,1 2,4
27.09.2020 06:00:00 14,7 14,6 18,0 81 44 90 49 N 999,0 2,7
27.09.2020 05:00:00 13,9 13,9 18,0 76 41 90 49 N 999,0 3,2
27.09.2020 04:00:00 13,8 13,7 18,0 76 41 86 47 N 999,3 3,5
27.09.2020 03:00:00 13,3 13,1 17,7 74 40 90 49 N 1000,0 4,1
27.09.2020 02:00:00 13,7 13,0 18,0 76 41 83 45 N 1000,9 4,7
27.09.2020 01:00:00 13,6 12,3 18,0 74 40 86 47 N 1001,7 6
27.09.2020 00:00:00 13,9 12,5 18,0 70 38 79 43 N 1002,0 6
26.09.2020 23:00:00 14,5 13,6 17,7 61 33 72 39 N 1002,4 2,4
26.09.2020 22:00:00 15,2 11,5 18,0 57 31 65 35 N 1002,6 10
26.09.2020 21:00:00 13,6 12,0 18,0 63 34 65 35 N 1002,7 10
26.09.2020 20:00:00 15,3 11,1 18,0 34 18 36 19 N 1002,8 10
26.09.2020 19:00:00 15,1 9,6 17,0 29 16 40 21 N 1002,1 10
26.09.2020 18:00:00 14,9 11,8 18,0 42 23 47 25 N 1001,8 10
26.09.2020 17:00:00 15,8 10,1 18,0 32 18 40 21 N 1001,6 23
26.09.2020 16:00:00 15,8 8,7 18,0 24 13 32 18 NNE 1001,4 10
26.09.2020 15:00:00 15,3 8,6 18,0 28 15 29 16 NNE 1001,1 10
26.09.2020 14:00:00 14,2 9,8 18,0 15 8 36 19 N 1000,6 10
26.09.2020 13:00:00 13,3 11,2 17,7 41 22 61 33 NW 1000,2 7
26.09.2020 12:00:00 14,4 11,0 17,8 63 34 72 39 NNW 1000,0 10
26.09.2020 11:00:00 13,8 10,3 18,0 61 33 72 39 NW 999,4 9
26.09.2020 10:00:00 13,8 10,9 17,7 67 36 76 41 NNW 998,9 10
26.09.2020 09:00:00 11,7 9,6 18,0 46 25 61 33 N 999,1 7
26.09.2020 08:00:00 10,2 9,1 18,0 47 25 72 39 N 998,8 1,9
26.09.2020 07:00:00 14,0 10,7 18,0 70 38 83 45 N 998,4 8
26.09.2020 06:00:00 10,9 10,2 17,8 46 25 90 49 NNW 997,9 3,4
26.09.2020 05:00:00 13,7 8,9 18,0 42 23 68 37 N 997,2 10
26.09.2020 04:00:00 11,8 10,9 18,0 59 32 76 41 NNW 996,5 4,4
26.09.2020 03:00:00 13,2 10,1 18,0 55 30 76 41 N 995,7 10
26.09.2020 02:00:00 15,0 9,7 18,0 63 34 72 39 N 994,9 10
26.09.2020 01:00:00 14,9 10,2 18,0 61 33 76 41 N 993,6 16
26.09.2020 00:00:00 13,5 10,8 17,9 61 33 79 43 NNW 992,4 10
25.09.2020 23:00:00 13,8 12,2 18,0 74 40 94 51 NW 992,2 5
25.09.2020 22:00:00 13,3 10,6 18,0 93 50 101 54 NW 992,6 5
25.09.2020 21:00:00 13,6 10,1 18,0 94 51 104 56 NW 992,2 5
25.09.2020 20:00:00 12,9 11,2 18,0 80 43 97 53 NNW 992,1 2,9
25.09.2020 19:00:00 14,4 10,7 18,0 74 40 83 45 NW 990,9 9
25.09.2020 18:00:00 13,8 11,3 18,0 65 35 94 51 WNW 991,0 7
25.09.2020 17:00:00 11,8 11,4 18,0 85 46 90 49 WNW 991,1 4,3

tt = Température de l'air
td = dewpoint
tw = water temperature
ff = Vitesse du vent
fx = gusts
dd = Direction du vent
ppp = reduced air pressure
vv = visibility

stations d'obs. à proximité